Weather History for KJYM - November, 2013

Change the Weather History Date:

Wednesday, November 20, 2013

  Actual Average Record
Temperature  
Mean Temperature 35 °F -  
Max Temperature 43 °F 45 °F 66 °F (1953)
Min Temperature 27 °F 29 °F 7 °F (1951)
Degree Days  
Heating Degree Days 30    
Moisture  
Dew Point 25 °F    
Average Humidity 67    
Maximum Humidity 83    
Minimum Humidity 43    
Precipitation  
Precipitation 0.00 in - - ()
Sea Level Pressure  
Sea Level Pressure 30.29 in    
Wind  
Wind Speed 7 mph (SE)    
Max Wind Speed 20 mph    
Max Gust Speed 24 mph    
Visibility 10 miles    
Events      
Averages and records for this station are not official NWS values.
T = Trace of Precipitation, MM = Missing Value Source: NWS Daily Summary

Daily Weather History Graph

Daily Weather History Graph

Search for Another Location

Airport or City:

Trip Planner

Search our weather history database for the weather conditions in past years. The results will help you decide how hot, cold, wet, or windy it might be!

Date:

Astronomy

Nov. 20, 2013 Rise Set
Actual Time 7:34 AM EST 5:13 PM EST
Civil Twilight 7:04 AM EST 5:43 PM EST
Nautical Twilight 6:29 AM EST 6:17 PM EST
Astronomical Twilight 5:56 AM EST 6:50 PM EST
Moon 7:55 PM EST (11/20) 9:59 AM EST (11/20)
Length of Visible Light 10h 39m
Length of Day
9h 38m
Waning Gibbous, 91% of the Moon is Illuminated
Nov 20
Waning Gibbous
Nov 25
Last Quarter
Dec 2
New
Dec 9
First Quarter
Dec 17
Full

Hourly Weather History & Observations

Time (EST) Temp. Windchill Dew Point Humidity Pressure Visibility Wind Dir Wind Speed Gust Speed Precip Events Conditions
12:14 AM 29.1 °F 24.1 °F 22.8 °F 77% 30.35 in 10.0 mi SE 4.6 mph - N/A   Clear
12:35 AM 28.9 °F 23.9 °F 22.8 °F 78% 30.35 in 10.0 mi SE 4.6 mph - N/A   Clear
12:55 AM 28.9 °F 23.9 °F 23.2 °F 79% 30.35 in 10.0 mi SE 4.6 mph - N/A   Clear
1:14 AM 28.8 °F 25.0 °F 23.0 °F 79% 30.36 in 10.0 mi SE 3.5 mph - N/A   Clear
1:35 AM 28.4 °F 24.6 °F 23.4 °F 81% 30.36 in 10.0 mi SE 3.5 mph - N/A   Clear
1:54 AM 28.2 °F 24.4 °F 23.4 °F 82% 30.36 in 10.0 mi SE 3.5 mph - N/A   Clear
2:15 AM 27.5 °F 23.6 °F 23.0 °F 83% 30.36 in 10.0 mi ESE 3.5 mph - N/A   Clear
2:35 AM 28.0 °F 22.8 °F 23.2 °F 82% 30.36 in 10.0 mi ESE 4.6 mph - N/A   Clear
2:54 AM 28.4 °F 23.3 °F 23.2 °F 81% 30.36 in 10.0 mi SE 4.6 mph - N/A   Clear
3:15 AM 28.4 °F 23.3 °F 23.4 °F 81% 30.36 in 10.0 mi SE 4.6 mph - N/A   Clear
3:35 AM 28.9 °F 22.8 °F 23.4 °F 80% 30.36 in 10.0 mi SE 5.8 mph - N/A   Clear
3:54 AM 28.8 °F 22.6 °F 23.2 °F 80% 30.36 in 10.0 mi SE 5.8 mph - N/A   Clear
4:15 AM 28.8 °F 22.6 °F 23.2 °F 80% 30.35 in 10.0 mi SE 5.8 mph - N/A   Clear
4:34 AM 28.9 °F 22.8 °F 23.2 °F 79% 30.36 in 10.0 mi SE 5.8 mph - N/A   Clear
4:55 AM 28.9 °F 21.9 °F 23.0 °F 78% 30.36 in 10.0 mi SE 6.9 mph - N/A   Clear
5:15 AM 28.9 °F 21.9 °F 22.8 °F 78% 30.36 in 10.0 mi SE 6.9 mph - N/A   Clear
5:34 AM 28.9 °F 21.9 °F 22.8 °F 78% 30.36 in 10.0 mi SE 6.9 mph - N/A   Clear
5:55 AM 28.9 °F 21.9 °F 22.8 °F 78% 30.36 in 10.0 mi SE 6.9 mph - N/A   Clear
6:14 AM 29.1 °F 21.3 °F 22.6 °F 77% 30.36 in 10.0 mi SE 8.1 mph - N/A   Clear
6:34 AM 29.1 °F 21.3 °F 22.8 °F 77% 30.37 in 10.0 mi SE 8.1 mph - N/A   Clear
6:55 AM 29.7 °F 21.3 °F 23.0 °F 76% 30.37 in 10.0 mi SE 9.2 mph - N/A   Clear
7:14 AM 29.1 °F 22.1 °F 22.8 °F 77% 30.37 in 10.0 mi SE 6.9 mph - N/A   Clear
7:35 AM 29.7 °F 22.0 °F 23.4 °F 77% 30.37 in 10.0 mi SE 8.1 mph - N/A   Clear
7:55 AM 29.7 °F 22.0 °F 23.4 °F 77% 30.37 in 10.0 mi SE 8.1 mph - N/A   Clear
8:14 AM 30.0 °F 21.7 °F 23.7 °F 77% 30.37 in 10.0 mi SE 9.2 mph - N/A   Clear
8:35 AM 31.5 °F 21.8 °F 24.1 °F 74% 30.36 in 10.0 mi SE 12.7 mph - N/A   Clear
8:55 AM 32.7 °F 24.5 °F 24.4 °F 72% 30.36 in 10.0 mi SE 10.4 mph 19.6 mph N/A   Clear
9:14 AM 33.3 °F 23.2 °F 24.6 °F 71% 30.36 in 10.0 mi ESE 15.0 mph 18.4 mph N/A   Clear
9:35 AM 34.0 °F 25.5 °F 25.0 °F 70% 30.36 in 10.0 mi ESE 11.5 mph 19.6 mph N/A   Clear
9:54 AM 34.9 °F 26.6 °F 25.0 °F 67% 30.35 in 10.0 mi SE 11.5 mph 19.6 mph N/A   Clear
10:15 AM 35.1 °F 25.9 °F 24.6 °F 66% 30.35 in 10.0 mi SE 13.8 mph 20.7 mph N/A   Clear
10:35 AM 36.0 °F 27.5 °F 24.8 °F 64% 30.35 in 10.0 mi ESE 12.7 mph 23.0 mph N/A   Clear
10:54 AM 36.0 °F 25.3 °F 24.3 °F 63% 30.34 in 10.0 mi SE 19.6 mph 24.2 mph N/A   Clear
11:15 AM 36.9 °F 27.5 °F 25.0 °F 62% 30.33 in 10.0 mi SE 16.1 mph 24.2 mph N/A   Clear
11:35 AM 37.8 °F 29.8 °F 24.3 °F 58% 30.32 in 10.0 mi SE 12.7 mph 19.6 mph N/A   Clear
11:54 AM 38.5 °F 29.6 °F 23.2 °F 54% 30.31 in 10.0 mi SE 16.1 mph 20.7 mph N/A   Clear
12:15 PM 39.7 °F 31.9 °F 23.0 °F 51% 30.29 in 10.0 mi SE 13.8 mph 19.6 mph N/A   Clear
12:35 PM 40.3 °F 32.2 °F 22.5 °F 49% 30.29 in 10.0 mi ESE 15.0 mph 18.4 mph N/A   Clear
12:54 PM 40.1 °F 32.7 °F 21.9 °F 48% 30.28 in 10.0 mi SE 12.7 mph - N/A   Clear
1:15 PM 40.8 °F 34.1 °F 22.1 °F 47% 30.27 in 10.0 mi SE 11.5 mph - N/A   Clear
1:34 PM 41.5 °F 35.4 °F 22.6 °F 47% 30.25 in 10.0 mi SE 10.4 mph - N/A   Clear
1:54 PM 42.4 °F 36.1 °F 22.1 °F 44% 30.25 in 10.0 mi SE 11.5 mph - N/A   Clear
2:15 PM 42.6 °F 36.8 °F 21.7 °F 44% 30.25 in 10.0 mi ESE 10.4 mph - N/A   Clear
2:34 PM 43.3 °F 36.8 °F 22.1 °F 43% 30.24 in 10.0 mi ESE 12.7 mph 18.4 mph N/A   Clear
2:54 PM 42.3 °F 35.5 °F 22.8 °F 46% 30.24 in 10.0 mi SE 12.7 mph 19.6 mph N/A   Clear
3:15 PM 42.6 °F 35.2 °F 23.7 °F 47% 30.22 in 10.0 mi ESE 15.0 mph - N/A   Clear
3:34 PM 42.4 °F 37.5 °F 24.3 °F 49% 30.22 in 10.0 mi SE 8.1 mph 17.3 mph N/A   Clear
3:55 PM 42.1 °F 36.6 °F 25.3 °F 52% 30.21 in 10.0 mi ESE 9.2 mph - N/A   Clear
4:15 PM 41.4 °F 34.3 °F 25.3 °F 53% 30.21 in 10.0 mi SE 12.7 mph - N/A   Clear
4:34 PM 40.6 °F 35.4 °F 25.9 °F 56% 30.22 in 10.0 mi SE 8.1 mph - N/A   Clear
4:55 PM 39.9 °F 34.5 °F 25.9 °F 57% 30.21 in 10.0 mi SE 8.1 mph - N/A   Clear
5:15 PM 39.0 °F 34.8 °F 26.1 °F 60% 30.21 in 10.0 mi SE 5.8 mph - N/A   Clear
5:34 PM 37.8 °F 32.5 °F 26.1 °F 63% 30.21 in 10.0 mi SE 6.9 mph - N/A   Clear
5:55 PM 37.8 °F 31.8 °F 26.4 °F 64% 30.21 in 10.0 mi SE 8.1 mph - N/A   Clear
6:14 PM 37.6 °F 32.3 °F 26.4 °F 64% 30.21 in 10.0 mi SE 6.9 mph - N/A   Clear
6:34 PM 37.0 °F 32.4 °F 26.4 °F 65% 30.22 in 10.0 mi SE 5.8 mph - N/A   Clear
6:55 PM 37.0 °F 31.6 °F 26.8 °F 66% 30.22 in 10.0 mi SE 6.9 mph - N/A   Clear
7:14 PM 37.4 °F 32.8 °F 27.1 °F 66% 30.22 in 10.0 mi SE 5.8 mph - N/A   Clear
7:34 PM 38.1 °F 32.9 °F 27.7 °F 66% 30.21 in 10.0 mi SE 6.9 mph - N/A   Clear
7:55 PM 38.7 °F 33.6 °F 28.0 °F 66% 30.21 in 10.0 mi SE 6.9 mph - N/A   Clear
8:14 PM 38.7 °F 33.6 °F 28.0 °F 66% 30.21 in 10.0 mi SE 6.9 mph - N/A   Clear
8:35 PM 38.7 °F 32.9 °F 28.0 °F 66% 30.21 in 10.0 mi SE 8.1 mph - N/A   Clear
8:54 PM 38.8 °F 33.2 °F 28.4 °F 66% 30.20 in 10.0 mi SSE 8.1 mph - N/A   Clear
9:15 PM 39.4 °F 33.8 °F 28.8 °F 66% 30.20 in 10.0 mi SSE 8.1 mph - N/A   Clear
9:35 PM 39.7 °F 34.9 °F 28.9 °F 65% 30.19 in 10.0 mi SSE 6.9 mph - N/A   Mostly Cloudy
9:54 PM 39.7 °F 34.9 °F 29.1 °F 66% 30.19 in 10.0 mi South 6.9 mph - N/A   Overcast
10:15 PM 39.9 °F 35.1 °F 29.5 °F 66% 30.19 in 10.0 mi SSE 6.9 mph - N/A   Overcast
10:35 PM 39.9 °F 35.8 °F 29.7 °F 67% 30.20 in 10.0 mi South 5.8 mph - N/A   Overcast
10:54 PM 40.3 °F 34.9 °F 30.0 °F 67% 30.20 in 10.0 mi South 8.1 mph - N/A   Overcast
11:15 PM 40.5 °F 35.8 °F 30.0 °F 66% 30.22 in 10.0 mi South 6.9 mph - N/A   Overcast
11:34 PM 41.2 °F 36.6 °F 30.2 °F 65% 30.21 in 10.0 mi South 6.9 mph - N/A   Overcast
11:55 PM 40.8 °F 37.8 °F 30.2 °F 66% 30.22 in 10.0 mi South 4.6 mph - N/A   Overcast